Regional Weather Roundup
Issued by NWS Sioux Falls, SD

Home | Current Version | Previous Version | Text Only | Print | Product List | Glossary Off
Versions: 1 2 3 4 5 6 7 8 9 10 11 12 13 14 15 16 17 18 19 20 21 22 23 24 25 26 27 28 29 30 31 32 33 34 35 36 37 38 39 40 41 42 43 44 45 46 47 48 49 50

602
ASUS43 KFSD 240110
RWRFSD

WEATHER ROUNDUP FOR SE SOUTH DAKOTA/SW MINNESOTA/NW IOWA
NATIONAL WEATHER SERVICE SIOUX FALLS SD
700 PM CST FRI FEB 23 2018

NOTE: "FAIR" INDICATES FEW OR NO CLOUDS BELOW 12,000 FEET WITH NO
SIGNIFICANT WEATHER AND OR OBSTRUCTIONS TO VISIBILITY.


SDZ038>040-050-052>070-240200-
SOUTHEAST SOUTH DAKOTA

CITY           SKY/WX    TMP DP  RH WIND       PRES   REMARKS
BROOKINGS      CLOUDY    16  13  88 W9        30.29R WCI   4
CHAMBERLAIN    MOCLDY     7   4  87 CALM      30.27F
HURON          MOCLDY    12   8  84 SW6       30.31R WCI   3
MADISON        CLOUDY    16  16 100 W8        30.28S WCI   5
MITCHELL       CLOUDY    14  10  84 W3        30.32S
SIOUX FALLS    CLOUDY    18  16  92 NW5       30.30S WCI  11
WINNER         FAIR      13   7  77 E6        30.23F WCI   4
YANKTON        CLOUDY    13  11  92 N5        30.30S WCI   5
$$

MNZ071-072-080-081-089-090-097-098-240200-
SOUTHWEST MINNESOTA

CITY           SKY/WX    TMP DP  RH WIND       PRES   REMARKS
FAIRMONT       CLEAR     16  13  88 N5        30.29F WCI   9
JACKSON        CLEAR     18  14  86 W7        30.28S WCI   8
LUVERNE        CLOUDY    19  18  93 NW8       30.31R WCI   9
MARSHALL       CLEAR     12   9  87 W9        30.30R WCI   0
MONTEVIDEO     CLOUDY    16   9  73 N3        30.31R
PIPESTONE      CLOUDY    18  16  93 NW8       30.28S WCI   7
REDWOOD FALLS  CLEAR     19  17  92 W5        30.31R WCI  12
TRACY          CLEAR     19  17  93 W7        30.29R WCI   9
WORTHINGTON    PTCLDY    16  14  92 W9        30.28S WCI   4
$$

IAZ001>003-012>014-020>022-031-032-NEZ013-014-SDZ071-240200-
NORTHWEST IOWA

CITY           SKY/WX    TMP DP  RH WIND       PRES   REMARKS
CHEROKEE       CLOUDY    22  21  96 N6        30.29F WCI  14
DENISON        CLOUDY    21  19  93 N9G17     30.29F WCI  11
ESTHERVILLE    CLEAR     15  13  91 W6        30.28S WCI   6
LE MARS        CLOUDY    19  18  93 N7        30.31S WCI  10
ORANGE CITY    CLOUDY    19  19 100 N5        30.29F WCI  13
SHELDON        CLOUDY    19  19 100 NW9       30.28S WCI   9
SIOUX CITY     CLOUDY    21  18  88 N9        30.31F WCI  11
SPENCER        CLOUDY    24  19  81 NW10      30.29S WCI  14
STORM LAKE     CLEAR     21  19  93 N10       30.27F WCI  10
$$

ABBREVIATIONS USED IN REMARKS
   TC - TEMPERATURE IN CELSIUS
  WCI - WIND CHILL INDEX
   HX - HEAT INDEX
  VSB - VISIBILITY





USA.gov is the U.S. government's official web portal to all federal, state and local government web resources and services.